Time,TemperatureF,DewpointF,PressureIn,WindDirection,WindDirectionDegrees,WindSpeedMPH,WindSpeedGustMPH,Humidity,HourlyPrecipIn,Conditions,Clouds,dailyrainin,SoftwareType,DateUTC
2013-02-12 00:01:00,-5.0,-8.0,-100.00,WNW,285,0.0,0.0,86,0.00,,,-99.99,,2013-02-12 07:01:00,
2013-02-12 00:11:00,-4.0,-7.0,-100.00,West,270,1.0,2.0,86,0.00,,,-99.99,,2013-02-12 07:11:00,
2013-02-12 00:21:00,-5.0,-8.0,-100.00,NW,325,0.0,2.0,86,0.00,,,-99.99,,2013-02-12 07:21:00,
2013-02-12 00:31:00,-5.0,-8.0,-100.00,NW,305,0.0,1.0,86,0.00,,,-99.99,,2013-02-12 07:31:00,
2013-02-12 00:42:00,-4.0,-7.0,-100.00,WNW,295,1.0,2.0,86,0.00,,,-99.99,,2013-02-12 07:42:00,
2013-02-12 00:51:00,-4.0,-7.0,-100.00,WNW,300,2.0,4.0,86,0.00,,,-99.99,,2013-02-12 07:51:00,
2013-02-12 01:01:00,-6.0,-9.0,-100.00,North,0,0.0,3.0,85,0.00,,,-99.99,,2013-02-12 08:01:00,
2013-02-12 01:11:00,-5.0,-8.0,-100.00,WNW,300,2.0,3.0,85,0.00,,,-99.99,,2013-02-12 08:11:00,
2013-02-12 01:21:00,-5.0,-9.0,-100.00,WNW,285,0.0,2.0,85,0.00,,,-99.99,,2013-02-12 08:21:00,
2013-02-12 01:32:00,-5.0,-8.0,-100.00,SW,235,0.0,0.0,85,0.00,,,-99.99,,2013-02-12 08:32:00,
2013-02-12 01:41:00,-6.0,-9.0,-100.00,SW,235,0.0,1.0,85,0.00,,,-99.99,,2013-02-12 08:41:00,
2013-02-12 01:52:00,-6.0,-10.0,-100.00,WSW,245,0.0,1.0,85,0.00,,,-99.99,,2013-02-12 08:52:00,
2013-02-12 02:01:00,-6.0,-10.0,-100.00,WNW,295,2.0,2.0,85,0.00,,,-99.99,,2013-02-12 09:01:00,
2013-02-12 02:11:00,-6.0,-9.0,-100.00,West,275,0.0,2.0,85,0.00,,,-99.99,,2013-02-12 09:11:00,
2013-02-12 02:21:00,-6.0,-9.0,-100.00,NW,305,0.0,2.0,85,0.00,,,-99.99,,2013-02-12 09:21:00,
2013-02-12 02:32:00,-6.0,-9.0,-100.00,NW,320,0.0,1.0,85,0.00,,,-99.99,,2013-02-12 09:32:00,
2013-02-12 02:42:00,-6.0,-9.0,-100.00,NW,305,0.0,2.0,85,0.00,,,-99.99,,2013-02-12 09:42:00,
2013-02-12 02:51:00,-7.0,-10.0,-100.00,NNE,15,0.0,2.0,85,0.00,,,-99.99,,2013-02-12 09:51:00,
2013-02-12 03:01:00,-7.0,-10.0,-100.00,West,280,0.0,1.0,85,0.00,,,-99.99,,2013-02-12 10:01:00,
2013-02-12 03:11:00,-7.0,-10.0,-100.00,WNW,290,0.0,1.0,85,0.00,,,-99.99,,2013-02-12 10:11:00,
2013-02-12 03:21:00,-7.0,-10.0,-100.00,WNW,290,0.0,0.0,85,0.00,,,-99.99,,2013-02-12 10:21:00,
2013-02-12 03:32:00,-8.0,-11.0,-100.00,WNW,290,0.0,0.0,85,0.00,,,-99.99,,2013-02-12 10:32:00,
2013-02-12 03:43:00,-8.0,-11.0,-100.00,WNW,290,0.0,0.0,85,0.00,,,-99.99,,2013-02-12 10:43:00,
2013-02-12 03:52:00,-7.0,-10.0,-100.00,NW,305,1.0,2.0,85,0.00,,,-99.99,,2013-02-12 10:52:00,
2013-02-12 04:01:00,-7.0,-10.0,-100.00,WNW,285,1.0,2.0,85,0.00,,,-99.99,,2013-02-12 11:01:00,
2013-02-12 04:11:00,-7.0,-10.0,-100.00,WNW,285,0.0,2.0,85,0.00,,,-99.99,,2013-02-12 11:11:00,
2013-02-12 04:21:00,-7.0,-10.0,-100.00,WNW,285,0.0,1.0,85,0.00,,,-99.99,,2013-02-12 11:21:00,
2013-02-12 04:32:00,-7.0,-10.0,-100.00,SSW,210,0.0,1.0,85,0.00,,,-99.99,,2013-02-12 11:32:00,
2013-02-12 04:41:00,-8.0,-11.0,-100.00,WSW,255,0.0,1.0,85,0.00,,,-99.99,,2013-02-12 11:41:00,
2013-02-12 04:52:00,-7.0,-10.0,-100.00,WNW,285,0.0,1.0,85,0.00,,,-99.99,,2013-02-12 11:52:00,
2013-02-12 05:01:00,-7.0,-10.0,-100.00,West,275,0.0,1.0,85,0.00,,,-99.99,,2013-02-12 12:01:00,
2013-02-12 05:11:00,-8.0,-11.0,-100.00,West,275,0.0,1.0,85,0.00,,,-99.99,,2013-02-12 12:11:00,
2013-02-12 05:21:00,-8.0,-11.0,-100.00,WNW,300,0.0,2.0,85,0.00,,,-99.99,,2013-02-12 12:21:00,
2013-02-12 05:32:00,-8.0,-11.0,-100.00,West,280,0.0,2.0,85,0.00,,,-99.99,,2013-02-12 12:32:00,
2013-02-12 05:42:00,-9.0,-12.0,-100.00,West,280,0.0,0.0,85,0.00,,,-99.99,,2013-02-12 12:42:00,
2013-02-12 05:53:00,-9.0,-12.0,-100.00,NNE,20,0.0,2.0,85,0.00,,,-99.99,,2013-02-12 12:53:00,
2013-02-12 06:01:00,-9.0,-12.0,-100.00,SE,140,0.0,0.0,85,0.00,,,-99.99,,2013-02-12 13:01:00,
2013-02-12 06:11:00,-9.0,-12.0,-100.00,SSW,210,0.0,0.0,85,0.00,,,-99.99,,2013-02-12 13:11:00,
2013-02-12 06:22:00,-9.0,-12.0,-100.00,WSW,255,1.0,4.0,85,0.00,,,-99.99,,2013-02-12 13:22:00,
2013-02-12 06:32:00,-9.0,-12.0,-100.00,West,275,0.0,4.0,85,0.00,,,-99.99,,2013-02-12 13:32:00,
2013-02-12 06:42:00,-9.0,-12.0,-100.00,WNW,285,0.0,0.0,85,0.00,,,-99.99,,2013-02-12 13:42:00,
2013-02-12 06:51:00,-9.0,-13.0,-100.00,ENE,60,0.0,1.0,85,0.00,,,-99.99,,2013-02-12 13:51:00,
2013-02-12 07:01:00,-9.0,-12.0,-100.00,ENE,70,0.0,0.0,85,0.00,,,-99.99,,2013-02-12 14:01:00,
2013-02-12 07:12:00,-9.0,-13.0,-100.00,NE,40,2.0,2.0,85,0.00,,,-99.99,,2013-02-12 14:12:00,
2013-02-12 07:21:00,-9.0,-12.0,-100.00,NNE,25,0.0,1.0,85,0.00,,,-99.99,,2013-02-12 14:21:00,
2013-02-12 07:32:00,-9.0,-12.0,-100.00,NW,315,0.0,1.0,85,0.00,,,-99.99,,2013-02-12 14:32:00,
2013-02-12 07:42:00,-9.0,-12.0,-100.00,NNE,30,1.0,3.0,85,0.00,,,-99.99,,2013-02-12 14:42:00,
2013-02-12 07:52:00,-5.0,-9.0,-100.00,SW,230,0.0,1.0,85,0.00,,,-99.99,,2013-02-12 14:52:00,
2013-02-12 08:02:00,-4.0,-8.0,-100.00,SW,225,0.0,1.0,85,0.00,,,-99.99,,2013-02-12 15:02:00,
2013-02-12 08:11:00,-2.0,-5.0,-100.00,East,80,0.0,2.0,86,0.00,,,-99.99,,2013-02-12 15:11:00,
2013-02-12 08:21:00,1.0,-2.0,-100.00,SSW,210,0.0,3.0,86,0.00,,,-99.99,,2013-02-12 15:21:00,
2013-02-12 08:32:00,1.0,-2.0,-100.00,SSE,160,1.0,2.0,86,0.00,,,-99.99,,2013-02-12 15:32:00,
2013-02-12 08:42:00,3.0,0.0,-100.00,ESE,115,1.0,2.0,86,0.00,,,-99.99,,2013-02-12 15:42:00,
2013-02-12 08:52:00,6.0,2.0,-100.00,ENE,60,0.0,2.0,87,0.00,,,-99.99,,2013-02-12 15:52:00,
2013-02-12 09:01:00,6.0,4.0,-100.00,East,95,2.0,3.0,87,0.00,,,-99.99,,2013-02-12 16:01:00,
2013-02-12 09:11:00,7.0,4.0,-100.00,ENE,75,2.0,4.0,86,0.00,,,-99.99,,2013-02-12 16:11:00,
2013-02-12 09:22:00,9.0,4.0,-100.00,NE,35,2.0,6.0,80,0.00,,,-99.99,,2013-02-12 16:22:00,
2013-02-12 09:31:00,10.0,4.0,-100.00,ENE,75,1.0,4.0,76,0.00,,,-99.99,,2013-02-12 16:31:00,
2013-02-12 09:41:00,11.0,4.0,-100.00,East,100,2.0,4.0,71,0.00,,,-99.99,,2013-02-12 16:41:00,
2013-02-12 09:51:00,14.0,5.0,-100.00,ESE,105,2.0,4.0,66,0.00,,,-99.99,,2013-02-12 16:51:00,
2013-02-12 10:01:00,16.0,5.0,-100.00,ESE,105,2.0,5.0,62,0.00,,,-99.99,,2013-02-12 17:01:00,
2013-02-12 10:12:00,16.0,4.0,-100.00,ESE,105,2.0,6.0,58,0.00,,,-99.99,,2013-02-12 17:12:00,
2013-02-12 10:21:00,16.0,3.0,-100.00,East,100,7.0,11.0,55,0.00,,,-99.99,,2013-02-12 17:21:00,
2013-02-12 10:32:00,17.0,3.0,-100.00,East,85,6.0,10.0,54,0.00,,,-99.99,,2013-02-12 17:32:00,
2013-02-12 10:42:00,17.0,3.0,-100.00,East,95,4.0,11.0,53,0.00,,,-99.99,,2013-02-12 17:42:00,
2013-02-12 10:52:00,17.0,2.0,-100.00,East,90,6.0,14.0,52,0.00,,,-99.99,,2013-02-12 17:52:00,
2013-02-12 11:01:00,17.0,3.0,-100.00,East,100,7.0,12.0,51,0.00,,,-99.99,,2013-02-12 18:01:00,
2013-02-12 11:11:00,18.0,3.0,-100.00,ENE,70,7.0,12.0,50,0.00,,,-99.99,,2013-02-12 18:11:00,
2013-02-12 11:23:00,20.0,4.0,-100.00,ESE,105,5.0,9.0,48,0.00,,,-99.99,,2013-02-12 18:23:00,
2013-02-12 11:31:00,22.0,5.0,-100.00,East,85,6.0,9.0,45,0.00,,,-99.99,,2013-02-12 18:31:00,
2013-02-12 11:41:00,23.0,4.0,-100.00,NE,40,4.0,9.0,43,0.00,,,-99.99,,2013-02-12 18:41:00,
2013-02-12 11:51:00,24.0,4.0,-100.00,ESE,110,6.0,9.0,42,0.00,,,-99.99,,2013-02-12 18:51:00,
2013-02-12 12:02:00,24.0,3.0,-100.00,ENE,70,6.0,9.0,40,0.00,,,-99.99,,2013-02-12 19:02:00,
2013-02-12 12:11:00,25.0,3.0,-100.00,NE,50,4.0,9.0,37,0.00,,,-99.99,,2013-02-12 19:11:00,
2013-02-12 12:21:00,27.0,4.0,-100.00,East,80,6.0,9.0,36,0.00,,,-99.99,,2013-02-12 19:21:00,
2013-02-12 12:31:00,25.0,1.0,-100.00,NE,45,5.0,9.0,34,0.00,,,-99.99,,2013-02-12 19:31:00,
2013-02-12 12:41:00,29.0,5.0,-100.00,ESE,110,4.0,6.0,34,0.00,,,-99.99,,2013-02-12 19:41:00,
2013-02-12 12:51:00,31.0,6.0,-100.00,East,90,4.0,8.0,32,0.00,,,-99.99,,2013-02-12 19:51:00,
2013-02-12 13:01:00,31.0,5.0,-100.00,East,100,4.0,8.0,32,0.00,,,-99.99,,2013-02-12 20:01:00,
2013-02-12 13:11:00,30.0,4.0,-100.00,ESE,120,3.0,10.0,32,0.00,,,-99.99,,2013-02-12 20:11:00,
2013-02-12 13:21:00,29.0,5.0,-100.00,SSW,200,2.0,10.0,35,0.00,,,-99.99,,2013-02-12 20:21:00,
2013-02-12 13:32:00,29.0,6.0,-100.00,SSE,150,2.0,6.0,36,0.00,,,-99.99,,2013-02-12 20:32:00,
2013-02-12 13:41:00,28.0,6.0,-100.00,SW,230,6.0,9.0,39,0.00,,,-99.99,,2013-02-12 20:41:00,
2013-02-12 13:52:00,28.0,8.0,-100.00,ESE,115,3.0,7.0,41,0.00,,,-99.99,,2013-02-12 20:52:00,
2013-02-12 14:01:00,28.0,8.0,-100.00,South,190,4.0,8.0,41,0.00,,,-99.99,,2013-02-12 21:01:00,
2013-02-12 14:11:00,29.0,9.0,-100.00,SE,145,2.0,7.0,42,0.00,,,-99.99,,2013-02-12 21:11:00,
2013-02-12 14:21:00,24.0,6.0,-100.00,SW,225,6.0,12.0,46,0.00,,,-99.99,,2013-02-12 21:21:00,
2013-02-12 14:31:00,22.0,6.0,-100.00,SSW,200,6.0,12.0,49,0.00,,,-99.99,,2013-02-12 21:31:00,
2013-02-12 14:42:00,22.0,7.0,-100.00,SSW,210,7.0,12.0,52,0.00,,,-99.99,,2013-02-12 21:42:00,
2013-02-12 14:51:00,22.0,8.0,-100.00,SW,230,6.0,11.0,53,0.00,,,-99.99,,2013-02-12 21:51:00,
2013-02-12 15:01:00,23.0,9.0,-100.00,SSW,210,4.0,11.0,54,0.00,,,-99.99,,2013-02-12 22:01:00,
2013-02-12 15:12:00,23.0,9.0,-100.00,WSW,255,4.0,8.0,54,0.00,,,-99.99,,2013-02-12 22:12:00,
2013-02-12 15:21:00,23.0,9.0,-100.00,SSW,210,5.0,7.0,54,0.00,,,-99.99,,2013-02-12 22:21:00,
2013-02-12 15:32:00,23.0,9.0,-100.00,SW,235,4.0,8.0,55,0.00,,,-99.99,,2013-02-12 22:32:00,
2013-02-12 15:42:00,22.0,9.0,-100.00,SW,225,4.0,8.0,56,0.00,,,-99.99,,2013-02-12 22:42:00,
2013-02-12 15:52:00,22.0,9.0,-100.00,WSW,245,2.0,7.0,57,0.00,,,-99.99,,2013-02-12 22:52:00,
2013-02-12 16:01:00,21.0,9.0,-100.00,SW,220,6.0,11.0,59,0.00,,,-99.99,,2013-02-12 23:01:00,
2013-02-12 16:11:00,20.0,9.0,-100.00,SW,225,6.0,11.0,62,0.00,,,-99.99,,2013-02-12 23:11:00,
2013-02-12 16:21:00,18.0,9.0,-100.00,SW,225,6.0,9.0,65,0.00,,,-99.99,,2013-02-12 23:21:00,
2013-02-12 16:32:00,17.0,8.0,-100.00,WSW,255,7.0,12.0,66,0.00,,,-99.99,,2013-02-12 23:32:00,
2013-02-12 16:42:00,17.0,8.0,-100.00,SW,215,6.0,12.0,68,0.00,,,-99.99,,2013-02-12 23:42:00,
2013-02-12 16:52:00,17.0,9.0,-100.00,SW,230,7.0,10.0,68,0.00,,,-99.99,,2013-02-12 23:52:00,
2013-02-12 17:02:00,17.0,8.0,-100.00,SSW,210,7.0,10.0,69,0.00,,,-99.99,,2013-02-13 00:02:00,
2013-02-12 17:11:00,15.0,8.0,-100.00,SW,215,5.0,12.0,71,0.00,,,-99.99,,2013-02-13 00:11:00,
2013-02-12 17:21:00,13.0,7.0,-100.00,SW,220,7.0,12.0,75,0.00,,,-99.99,,2013-02-13 00:21:00,
2013-02-12 17:32:00,13.0,7.0,-100.00,SW,220,6.0,12.0,76,0.00,,,-99.99,,2013-02-13 00:32:00,
2013-02-12 17:42:00,12.0,7.0,-100.00,SW,215,5.0,11.0,78,0.00,,,-99.99,,2013-02-13 00:42:00,
2013-02-12 17:52:00,11.0,6.0,-100.00,SW,230,6.0,9.0,80,0.00,,,-99.99,,2013-02-13 00:52:00,
2013-02-12 18:01:00,11.0,6.0,-100.00,SW,230,5.0,10.0,81,0.00,,,-99.99,,2013-02-13 01:01:00,
2013-02-12 18:11:00,10.0,6.0,-100.00,SW,220,6.0,10.0,81,0.00,,,-99.99,,2013-02-13 01:11:00,
2013-02-12 18:21:00,9.0,5.0,-100.00,SW,215,6.0,11.0,82,0.00,,,-99.99,,2013-02-13 01:21:00,
2013-02-12 18:31:00,9.0,5.0,-100.00,SW,235,6.0,11.0,83,0.00,,,-99.99,,2013-02-13 01:31:00,
2013-02-12 18:42:00,8.0,5.0,-100.00,SW,230,4.0,9.0,84,0.00,,,-99.99,,2013-02-13 01:42:00,
2013-02-12 18:52:00,9.0,5.0,-100.00,WSW,245,7.0,11.0,84,0.00,,,-99.99,,2013-02-13 01:52:00,
2013-02-12 19:01:00,9.0,5.0,-100.00,SSW,210,6.0,11.0,84,0.00,,,-99.99,,2013-02-13 02:01:00,
2013-02-12 19:11:00,8.0,4.0,-100.00,SW,225,7.0,11.0,84,0.00,,,-99.99,,2013-02-13 02:11:00,
2013-02-12 19:22:00,8.0,4.0,-100.00,SW,220,6.0,11.0,84,0.00,,,-99.99,,2013-02-13 02:22:00,
2013-02-12 19:31:00,7.0,4.0,-100.00,SW,225,6.0,11.0,84,0.00,,,-99.99,,2013-02-13 02:31:00,
2013-02-12 19:41:00,6.0,3.0,-100.00,SW,225,6.0,9.0,85,0.00,,,-99.99,,2013-02-13 02:41:00,
2013-02-12 19:52:00,7.0,4.0,-100.00,SW,230,6.0,9.0,85,0.00,,,-99.99,,2013-02-13 02:52:00,
2013-02-12 20:01:00,6.0,3.0,-100.00,SW,225,6.0,10.0,85,0.00,,,-99.99,,2013-02-13 03:01:00,
2013-02-12 20:11:00,6.0,3.0,-100.00,SW,225,6.0,8.0,85,0.00,,,-99.99,,2013-02-13 03:11:00,
2013-02-12 20:21:00,6.0,3.0,-100.00,SW,220,6.0,9.0,85,0.00,,,-99.99,,2013-02-13 03:21:00,
2013-02-12 20:32:00,6.0,2.0,-100.00,SSW,210,7.0,10.0,85,0.00,,,-99.99,,2013-02-13 03:32:00,
2013-02-12 20:42:00,6.0,3.0,-100.00,SW,225,7.0,11.0,85,0.00,,,-99.99,,2013-02-13 03:42:00,
2013-02-12 20:51:00,7.0,3.0,-100.00,WSW,255,6.0,10.0,85,0.00,,,-99.99,,2013-02-13 03:51:00,
2013-02-12 21:01:00,7.0,4.0,-100.00,WSW,245,4.0,10.0,85,0.00,,,-99.99,,2013-02-13 04:01:00,
2013-02-12 21:11:00,7.0,4.0,-100.00,WSW,240,6.0,11.0,84,0.00,,,-99.99,,2013-02-13 04:11:00,
2013-02-12 21:21:00,7.0,3.0,-100.00,SW,220,7.0,11.0,84,0.00,,,-99.99,,2013-02-13 04:21:00,
2013-02-12 21:32:00,7.0,3.0,-100.00,SW,220,7.0,11.0,84,0.00,,,-99.99,,2013-02-13 04:32:00,
2013-02-12 21:41:00,6.0,2.0,-100.00,SW,220,7.0,11.0,84,0.00,,,-99.99,,2013-02-13 04:41:00,
2013-02-12 21:51:00,6.0,2.0,-100.00,SW,220,8.0,10.0,84,0.00,,,-99.99,,2013-02-13 04:51:00,
2013-02-12 22:01:00,6.0,2.0,-100.00,SW,220,8.0,11.0,84,0.00,,,-99.99,,2013-02-13 05:01:00,
2013-02-12 22:11:00,6.0,2.0,-100.00,SW,225,7.0,9.0,84,0.00,,,-99.99,,2013-02-13 05:11:00,
2013-02-12 22:22:00,6.0,3.0,-100.00,WSW,255,3.0,7.0,85,0.00,,,-99.99,,2013-02-13 05:22:00,
2013-02-12 22:31:00,6.0,3.0,-100.00,West,275,1.0,5.0,85,0.00,,,-99.99,,2013-02-13 05:31:00,
2013-02-12 22:42:00,7.0,4.0,-100.00,West,260,4.0,5.0,86,0.00,,,-99.99,,2013-02-13 05:42:00,
2013-02-12 22:52:00,5.0,2.0,-100.00,NNE,30,1.0,6.0,85,0.00,,,-99.99,,2013-02-13 05:52:00,
2013-02-12 23:02:00,4.0,1.0,-100.00,West,270,1.0,3.0,85,0.00,,,-99.99,,2013-02-13 06:02:00,
2013-02-12 23:11:00,4.0,1.0,-100.00,WSW,245,0.0,3.0,86,0.00,,,-99.99,,2013-02-13 06:11:00,
2013-02-12 23:21:00,4.0,1.0,-100.00,West,265,2.0,4.0,87,0.00,,,-99.99,,2013-02-13 06:21:00,
2013-02-12 23:32:00,6.0,3.0,-100.00,West,270,2.0,4.0,88,0.00,,,-99.99,,2013-02-13 06:32:00,
2013-02-12 23:42:00,6.0,4.0,-100.00,WSW,250,2.0,6.0,88,0.00,,,-99.99,,2013-02-13 06:42:00,
2013-02-12 23:51:00,5.0,2.0,-100.00,SSW,210,1.0,3.0,88,0.00,,,-99.99,,2013-02-13 06:51:00,